View from above orbital plane
|
View from above satellite
|
Ground track
|
The orbit data is extracted from the following two-line orbital elements,
1 25544U 98067A 22148.19020537 .00010414 00000-0 19197-3 0 9994
2 25544 51.6428 75.6306 0005067 167.7010 165.5947 15.49730350342075
Epoch (UTC): | 28 May 2022 04:33:53 |
Eccentricity: | 0.0005067 |
inclination: | 51.6428° |
perigee height: | 414 km |
apogee height: | 421 km |
right ascension of ascending node: | 75.6306° |
argument of perigee: | 167.7010° |
revolutions per day: | 15.49730350 |
mean anomaly at epoch: | 165.5947° |
orbit number at epoch: | 34207 |
The dashed part of the orbit path shows where the satellite is in the earth's shadow,
|
|